Time,TemperatureF,DewpointF,PressureIn,WindDirection,WindDirectionDegrees,WindSpeedMPH,WindSpeedGustMPH,Humidity,HourlyPrecipIn,Conditions,Clouds,dailyrainin,SoftwareType,DateUTC
2013-06-07 00:01:00,75.9,61.0,-100.00,SW,225,0.0,2.0,60,0.00,,,0.00,meteohub,2013-06-07 05:01:00,
2013-06-07 00:07:00,75.7,61.3,-100.00,ESE,113,2.0,2.0,61,0.00,,,0.00,meteohub,2013-06-07 05:07:00,
2013-06-07 00:09:00,75.7,61.3,-100.00,SE,135,0.0,1.0,61,0.00,,,0.00,meteohub,2013-06-07 05:09:00,
2013-06-07 00:13:00,75.6,61.2,-100.00,ENE,68,0.0,2.0,61,0.00,,,0.00,meteohub,2013-06-07 05:13:00,
2013-06-07 00:15:00,75.6,61.2,-100.00,ENE,68,0.0,2.0,61,0.00,,,0.00,meteohub,2013-06-07 05:15:00,
2013-06-07 00:17:00,75.4,61.5,-100.00,WSW,248,0.0,2.0,62,0.00,,,0.00,meteohub,2013-06-07 05:17:00,
2013-06-07 00:19:00,75.4,61.5,-100.00,NE,45,0.0,2.0,62,0.00,,,0.00,meteohub,2013-06-07 05:19:00,
2013-06-07 00:21:00,75.4,61.5,-100.00,West,270,3.0,3.0,62,0.00,,,0.00,meteohub,2013-06-07 05:21:00,
2013-06-07 00:23:00,75.0,61.2,-100.00,SSW,203,2.0,2.0,62,0.00,,,0.00,meteohub,2013-06-07 05:23:00,
2013-06-07 00:25:00,75.0,61.5,-100.00,East,90,2.0,3.0,63,0.00,,,0.00,meteohub,2013-06-07 05:25:00,
2013-06-07 00:29:00,74.8,61.3,-100.00,East,90,0.0,3.0,63,0.00,,,0.00,meteohub,2013-06-07 05:29:00,
2013-06-07 00:32:00,74.8,61.3,-100.00,SE,135,1.0,3.0,63,0.00,,,0.00,meteohub,2013-06-07 05:32:00,
2013-06-07 00:35:00,74.8,61.3,-100.00,NE,45,0.0,3.0,63,0.00,,,0.00,meteohub,2013-06-07 05:35:00,
2013-06-07 00:37:00,74.8,61.3,-100.00,West,270,1.0,3.0,63,0.00,,,0.00,meteohub,2013-06-07 05:37:00,
2013-06-07 00:41:00,74.8,61.9,-100.00,ESE,113,0.0,2.0,64,0.00,,,0.00,meteohub,2013-06-07 05:41:00,
2013-06-07 00:45:00,74.8,61.9,-100.00,NNE,23,0.0,1.0,64,0.00,,,0.00,meteohub,2013-06-07 05:45:00,
2013-06-07 00:47:00,74.8,61.9,-100.00,NNE,23,0.0,1.0,64,0.00,,,0.00,meteohub,2013-06-07 05:47:00,
2013-06-07 00:51:00,74.5,61.5,-100.00,SSE,158,1.0,1.0,64,0.00,,,0.00,meteohub,2013-06-07 05:51:00,
2013-06-07 00:53:00,74.5,61.9,-100.00,SSE,158,0.0,1.0,65,0.00,,,0.00,meteohub,2013-06-07 05:53:00,
2013-06-07 00:55:00,74.5,61.9,-100.00,NE,45,0.0,1.0,65,0.00,,,0.00,meteohub,2013-06-07 05:55:00,
2013-06-07 00:58:00,74.5,61.9,-100.00,East,90,0.0,1.0,65,0.00,,,0.00,meteohub,2013-06-07 05:58:00,
2013-06-07 01:00:00,74.5,61.9,-100.00,NNE,23,0.0,1.0,65,0.00,,,0.00,meteohub,2013-06-07 06:00:00,
2013-06-07 01:02:00,74.5,61.9,-100.00,NNE,23,0.0,1.0,65,0.00,,,0.00,meteohub,2013-06-07 06:02:00,
2013-06-07 01:04:00,74.5,61.9,-100.00,NNE,23,0.0,1.0,65,0.00,,,0.00,meteohub,2013-06-07 06:04:00,
2013-06-07 01:12:00,74.1,61.5,-100.00,ENE,68,0.0,0.0,65,0.00,,,0.00,meteohub,2013-06-07 06:12:00,
2013-06-07 01:14:00,74.1,61.5,-100.00,NE,45,0.0,0.0,65,0.00,,,0.00,meteohub,2013-06-07 06:14:00,
2013-06-07 01:16:00,74.1,61.5,-100.00,SE,135,0.0,0.0,65,0.00,,,0.00,meteohub,2013-06-07 06:16:00,
2013-06-07 01:17:00,74.1,61.5,-100.00,SE,135,0.0,0.0,65,0.00,,,0.00,meteohub,2013-06-07 06:17:00,
2013-06-07 01:18:00,74.1,61.5,-100.00,NE,45,0.0,0.0,65,0.00,,,0.00,meteohub,2013-06-07 06:18:00,
2013-06-07 01:22:00,73.9,61.3,-100.00,ESE,113,0.0,0.0,65,0.00,,,0.00,meteohub,2013-06-07 06:22:00,
2013-06-07 01:24:00,73.9,61.9,-100.00,NE,45,0.0,0.0,66,0.00,,,0.00,meteohub,2013-06-07 06:24:00,
2013-06-07 01:28:00,73.9,61.9,-100.00,WSW,248,0.0,0.0,66,0.00,,,0.00,meteohub,2013-06-07 06:28:00,
2013-06-07 01:30:00,73.9,61.9,-100.00,NNE,23,1.0,1.0,66,0.00,,,0.00,meteohub,2013-06-07 06:30:00,
2013-06-07 01:34:00,73.8,62.1,-100.00,ESE,113,0.0,1.0,67,0.00,,,0.00,meteohub,2013-06-07 06:34:00,
2013-06-07 01:36:00,73.6,61.9,-100.00,ESE,113,0.0,1.0,67,0.00,,,0.00,meteohub,2013-06-07 06:36:00,
2013-06-07 01:38:00,73.8,62.1,-100.00,SSW,203,2.0,2.0,67,0.00,,,0.00,meteohub,2013-06-07 06:38:00,
2013-06-07 01:42:00,73.4,61.7,-100.00,NE,45,0.0,2.0,67,0.00,,,0.00,meteohub,2013-06-07 06:42:00,
2013-06-07 01:44:00,73.2,61.5,-100.00,ENE,68,0.0,2.0,67,0.00,,,0.00,meteohub,2013-06-07 06:44:00,
2013-06-07 01:46:00,73.2,61.5,-100.00,ESE,113,0.0,2.0,67,0.00,,,0.00,meteohub,2013-06-07 06:46:00,
2013-06-07 01:50:00,73.2,62.1,-100.00,NE,45,0.0,2.0,68,0.00,,,0.00,meteohub,2013-06-07 06:50:00,
2013-06-07 01:52:00,73.2,62.1,-100.00,East,90,0.0,2.0,68,0.00,,,0.00,meteohub,2013-06-07 06:52:00,
2013-06-07 01:54:00,73.0,61.9,-100.00,ENE,68,0.0,2.0,68,0.00,,,0.00,meteohub,2013-06-07 06:54:00,
2013-06-07 01:58:00,73.0,61.9,-100.00,NNE,23,0.0,1.0,68,0.00,,,0.00,meteohub,2013-06-07 06:58:00,
2013-06-07 02:00:00,73.0,61.9,-100.00,NNE,23,0.0,0.0,68,0.00,,,0.00,meteohub,2013-06-07 07:00:00,
2013-06-07 02:04:00,73.0,61.9,-100.00,NNE,23,0.0,0.0,68,0.00,,,0.00,meteohub,2013-06-07 07:04:00,
2013-06-07 02:06:00,72.7,61.5,-100.00,NNE,23,0.0,0.0,68,0.00,,,0.00,meteohub,2013-06-07 07:06:00,
2013-06-07 02:08:00,72.7,61.9,-100.00,NNE,23,2.0,0.0,69,0.00,,,0.00,meteohub,2013-06-07 07:08:00,
2013-06-07 02:10:00,72.7,61.9,-100.00,NNE,23,0.0,2.0,69,0.00,,,0.00,meteohub,2013-06-07 07:10:00,
2013-06-07 02:12:00,72.7,61.9,-100.00,NE,45,1.0,2.0,69,0.00,,,0.00,meteohub,2013-06-07 07:12:00,
2013-06-07 02:14:00,72.5,61.7,-100.00,NNE,23,4.0,4.0,69,0.00,,,0.00,meteohub,2013-06-07 07:14:00,
2013-06-07 02:16:00,72.5,61.7,-100.00,North,0,2.0,2.0,69,0.00,,,0.00,meteohub,2013-06-07 07:16:00,
2013-06-07 02:17:00,72.5,61.7,-100.00,North,0,2.0,2.0,69,0.00,,,0.00,meteohub,2013-06-07 07:17:00,
2013-06-07 02:20:00,72.3,61.5,-100.00,NE,45,1.0,4.0,69,0.00,,,0.00,meteohub,2013-06-07 07:20:00,
2013-06-07 02:22:00,72.3,61.5,-100.00,NNE,23,1.0,4.0,69,0.00,,,0.00,meteohub,2013-06-07 07:22:00,
2013-06-07 02:24:00,72.3,61.5,-100.00,NNE,23,0.0,4.0,69,0.00,,,0.00,meteohub,2013-06-07 07:24:00,
2013-06-07 02:26:00,72.3,61.5,-100.00,NNE,23,0.0,4.0,69,0.00,,,0.00,meteohub,2013-06-07 07:26:00,
2013-06-07 02:28:00,72.3,61.5,-100.00,NNE,23,0.0,4.0,69,0.00,,,0.00,meteohub,2013-06-07 07:28:00,
2013-06-07 02:32:00,72.3,61.5,-100.00,SE,135,0.0,4.0,69,0.00,,,0.00,meteohub,2013-06-07 07:32:00,
2013-06-07 02:34:00,72.3,61.5,-100.00,NNE,23,0.0,4.0,69,0.00,,,0.00,meteohub,2013-06-07 07:34:00,
2013-06-07 02:36:00,72.3,61.5,-100.00,NNE,23,0.0,1.0,69,0.00,,,0.00,meteohub,2013-06-07 07:36:00,
2013-06-07 02:40:00,72.1,61.3,-100.00,NNE,23,2.0,0.0,69,0.00,,,0.00,meteohub,2013-06-07 07:40:00,
2013-06-07 02:42:00,72.1,61.3,-100.00,North,0,2.0,0.0,69,0.00,,,0.00,meteohub,2013-06-07 07:42:00,
2013-06-07 02:45:00,72.1,61.3,-100.00,NNE,23,1.0,0.0,69,0.00,,,0.00,meteohub,2013-06-07 07:45:00,
2013-06-07 02:47:00,72.1,61.3,-100.00,NNE,23,0.0,2.0,69,0.00,,,0.00,meteohub,2013-06-07 07:47:00,
2013-06-07 02:51:00,72.1,61.9,-100.00,North,0,0.0,2.0,70,0.00,,,0.00,meteohub,2013-06-07 07:51:00,
2013-06-07 02:53:00,72.1,61.9,-100.00,NNE,23,6.0,6.0,70,0.00,,,0.00,meteohub,2013-06-07 07:53:00,
2013-06-07 02:57:00,72.0,61.7,-100.00,NNE,23,2.0,6.0,70,0.00,,,0.00,meteohub,2013-06-07 07:57:00,
2013-06-07 02:59:00,72.0,61.2,-100.00,North,0,0.0,6.0,69,0.00,,,0.00,meteohub,2013-06-07 07:59:00,
2013-06-07 03:01:00,72.0,61.2,-100.00,North,0,0.0,6.0,69,0.00,,,0.00,meteohub,2013-06-07 08:01:00,
2013-06-07 03:02:00,72.0,61.7,-100.00,NE,45,2.0,6.0,70,0.00,,,0.00,meteohub,2013-06-07 08:02:00,
2013-06-07 03:03:00,72.0,61.7,-100.00,NE,45,2.0,6.0,70,0.00,,,0.00,meteohub,2013-06-07 08:03:00,
2013-06-07 03:05:00,72.0,61.7,-100.00,NE,45,0.0,6.0,70,0.00,,,0.00,meteohub,2013-06-07 08:05:00,
2013-06-07 03:07:00,72.0,61.7,-100.00,NE,45,1.0,6.0,70,0.00,,,0.00,meteohub,2013-06-07 08:07:00,
2013-06-07 03:09:00,72.0,61.7,-100.00,NE,45,1.0,6.0,70,0.00,,,0.00,meteohub,2013-06-07 08:09:00,
2013-06-07 03:13:00,72.0,61.7,-100.00,NE,45,1.0,2.0,70,0.00,,,0.00,meteohub,2013-06-07 08:13:00,
2013-06-07 03:15:00,72.0,61.7,-100.00,ENE,68,0.0,2.0,70,0.00,,,0.00,meteohub,2013-06-07 08:15:00,
2013-06-07 03:17:00,72.0,61.7,-100.00,North,0,2.0,2.0,70,0.00,,,0.00,meteohub,2013-06-07 08:17:00,
2013-06-07 03:19:00,72.0,61.7,-100.00,NE,45,0.0,2.0,70,0.00,,,0.00,meteohub,2013-06-07 08:19:00,
2013-06-07 03:23:00,71.8,61.5,-100.00,NNE,23,0.0,2.0,70,0.00,,,0.00,meteohub,2013-06-07 08:23:00,
2013-06-07 03:25:00,71.8,61.5,-100.00,NNE,23,1.0,2.0,70,0.00,,,0.00,meteohub,2013-06-07 08:25:00,
2013-06-07 03:27:00,71.8,61.5,-100.00,NNE,23,2.0,2.0,70,0.00,,,0.00,meteohub,2013-06-07 08:27:00,
2013-06-07 03:29:00,71.8,61.5,-100.00,North,0,1.0,2.0,70,0.00,,,0.00,meteohub,2013-06-07 08:29:00,
2013-06-07 03:31:00,71.8,61.5,-100.00,North,0,2.0,2.0,70,0.00,,,0.00,meteohub,2013-06-07 08:31:00,
2013-06-07 03:33:00,71.8,61.5,-100.00,NNE,23,2.0,2.0,70,0.00,,,0.00,meteohub,2013-06-07 08:33:00,
2013-06-07 03:37:00,71.6,61.3,-100.00,NNE,23,0.0,2.0,70,0.00,,,0.00,meteohub,2013-06-07 08:37:00,
2013-06-07 03:39:00,71.6,61.3,-100.00,NNE,23,0.0,2.0,70,0.00,,,0.00,meteohub,2013-06-07 08:39:00,
2013-06-07 03:43:00,71.4,61.2,-100.00,NE,45,1.0,2.0,70,0.00,,,0.00,meteohub,2013-06-07 08:43:00,
2013-06-07 03:47:00,71.4,61.2,-100.00,NNE,23,0.0,2.0,70,0.00,,,0.00,meteohub,2013-06-07 08:47:00,
2013-06-07 03:49:00,71.4,61.2,-100.00,NNE,23,1.0,2.0,70,0.00,,,0.00,meteohub,2013-06-07 08:49:00,
2013-06-07 03:53:00,71.4,61.5,-100.00,NNE,23,1.0,1.0,71,0.00,,,0.00,meteohub,2013-06-07 08:53:00,
2013-06-07 03:55:00,71.2,61.3,-100.00,NNE,23,0.0,1.0,71,0.00,,,0.00,meteohub,2013-06-07 08:55:00,
2013-06-07 03:59:00,71.2,61.3,-100.00,NNE,23,0.0,1.0,71,0.00,,,0.00,meteohub,2013-06-07 08:59:00,
2013-06-07 04:02:00,71.2,61.3,-100.00,NNE,23,0.0,1.0,71,0.00,,,0.00,meteohub,2013-06-07 09:02:00,
2013-06-07 04:05:00,71.1,61.2,-100.00,NE,45,1.0,1.0,71,0.00,,,0.00,meteohub,2013-06-07 09:05:00,
2013-06-07 04:07:00,70.9,61.0,-100.00,NNE,23,0.0,1.0,71,0.00,,,0.00,meteohub,2013-06-07 09:07:00,
2013-06-07 04:09:00,70.9,61.3,-100.00,NE,45,0.0,1.0,72,0.00,,,0.00,meteohub,2013-06-07 09:09:00,
2013-06-07 04:13:00,70.9,61.3,-100.00,NNE,23,0.0,1.0,72,0.00,,,0.00,meteohub,2013-06-07 09:13:00,
2013-06-07 04:15:00,70.7,61.2,-100.00,NNE,23,0.0,2.0,72,0.00,,,0.00,meteohub,2013-06-07 09:15:00,
2013-06-07 04:17:00,70.7,61.2,-100.00,NNE,23,0.0,2.0,72,0.00,,,0.00,meteohub,2013-06-07 09:17:00,
2013-06-07 04:20:00,70.7,61.2,-100.00,SE,135,0.0,2.0,72,0.00,,,0.00,meteohub,2013-06-07 09:20:00,
2013-06-07 04:24:00,70.5,61.0,-100.00,SSE,158,0.0,2.0,72,0.00,,,0.00,meteohub,2013-06-07 09:24:00,
2013-06-07 04:28:00,70.5,61.0,-100.00,NNE,23,0.0,3.0,72,0.00,,,0.00,meteohub,2013-06-07 09:28:00,
2013-06-07 04:30:00,70.5,61.0,-100.00,NE,45,0.0,3.0,72,0.00,,,0.00,meteohub,2013-06-07 09:30:00,
2013-06-07 04:32:00,70.5,61.0,-100.00,NE,45,0.0,3.0,72,0.00,,,0.00,meteohub,2013-06-07 09:32:00,
2013-06-07 04:38:00,70.5,61.5,-100.00,NNE,23,2.0,3.0,73,0.00,,,0.00,meteohub,2013-06-07 09:38:00,
2013-06-07 04:40:00,70.5,61.5,-100.00,NNE,23,0.0,3.0,73,0.00,,,0.00,meteohub,2013-06-07 09:40:00,
2013-06-07 04:44:00,70.3,61.3,-100.00,NNE,23,0.0,3.0,73,0.00,,,0.00,meteohub,2013-06-07 09:44:00,
2013-06-07 04:46:00,70.3,61.3,-100.00,NE,45,3.0,3.0,73,0.00,,,0.00,meteohub,2013-06-07 09:46:00,
2013-06-07 04:52:00,70.3,61.3,-100.00,NE,45,0.0,3.0,73,0.00,,,0.00,meteohub,2013-06-07 09:52:00,
2013-06-07 04:54:00,70.3,61.3,-100.00,NNE,23,0.0,3.0,73,0.00,,,0.00,meteohub,2013-06-07 09:54:00,
2013-06-07 04:58:00,70.2,61.2,-100.00,NNE,23,0.0,3.0,73,0.00,,,0.00,meteohub,2013-06-07 09:58:00,
2013-06-07 05:00:00,70.2,61.5,-100.00,NE,45,0.0,3.0,74,0.00,,,0.00,meteohub,2013-06-07 10:00:00,
2013-06-07 05:02:00,70.0,61.3,-100.00,NNE,23,0.0,3.0,74,0.00,,,0.00,meteohub,2013-06-07 10:02:00,
2013-06-07 05:04:00,70.2,61.5,-100.00,NNE,23,0.0,3.0,74,0.00,,,0.00,meteohub,2013-06-07 10:04:00,
2013-06-07 05:08:00,70.0,61.3,-100.00,NNE,23,0.0,1.0,74,0.00,,,0.00,meteohub,2013-06-07 10:08:00,
2013-06-07 05:10:00,70.0,61.3,-100.00,NNE,23,0.0,0.0,74,0.00,,,0.00,meteohub,2013-06-07 10:10:00,
2013-06-07 05:14:00,70.0,61.3,-100.00,North,0,0.0,0.0,74,0.00,,,0.00,meteohub,2013-06-07 10:14:00,
2013-06-07 05:16:00,70.0,61.3,-100.00,North,0,0.0,0.0,74,0.00,,,0.00,meteohub,2013-06-07 10:16:00,
2013-06-07 05:17:00,70.0,61.3,-100.00,North,0,0.0,0.0,74,0.00,,,0.00,meteohub,2013-06-07 10:17:00,
2013-06-07 05:20:00,69.8,61.2,-100.00,North,0,0.0,0.0,74,0.00,,,0.00,meteohub,2013-06-07 10:20:00,
2013-06-07 05:22:00,69.8,61.2,-100.00,North,0,1.0,0.0,74,0.00,,,0.00,meteohub,2013-06-07 10:22:00,
2013-06-07 05:24:00,69.8,61.2,-100.00,North,0,0.0,0.0,74,0.00,,,0.00,meteohub,2013-06-07 10:24:00,
2013-06-07 05:30:00,69.6,61.0,-100.00,ESE,113,0.0,1.0,74,0.00,,,0.00,meteohub,2013-06-07 10:30:00,
2013-06-07 05:32:00,69.6,61.0,-100.00,ESE,113,0.0,1.0,74,0.00,,,0.00,meteohub,2013-06-07 10:32:00,
2013-06-07 05:38:00,69.4,60.8,-100.00,North,0,0.0,1.0,74,0.00,,,0.00,meteohub,2013-06-07 10:38:00,
2013-06-07 05:40:00,69.4,61.2,-100.00,North,0,0.0,0.0,75,0.00,,,0.00,meteohub,2013-06-07 10:40:00,
2013-06-07 05:44:00,69.4,61.2,-100.00,North,0,0.0,0.0,75,0.00,,,0.00,meteohub,2013-06-07 10:44:00,
2013-06-07 05:47:00,69.4,61.2,-100.00,NNE,23,0.0,0.0,75,0.00,,,0.00,meteohub,2013-06-07 10:47:00,
2013-06-07 05:49:00,69.4,61.2,-100.00,NNE,23,0.0,0.0,75,0.00,,,0.00,meteohub,2013-06-07 10:49:00,
2013-06-07 05:51:00,69.4,61.2,-100.00,NNE,23,0.0,0.0,75,0.00,,,0.00,meteohub,2013-06-07 10:51:00,
2013-06-07 05:53:00,69.3,61.0,-100.00,NNE,23,0.0,0.0,75,0.00,,,0.00,meteohub,2013-06-07 10:53:00,
2013-06-07 05:55:00,69.1,60.8,-100.00,North,0,0.0,0.0,75,0.00,,,0.00,meteohub,2013-06-07 10:55:00,
2013-06-07 05:57:00,69.1,61.2,-100.00,NNE,23,0.0,0.0,76,0.00,,,0.00,meteohub,2013-06-07 10:57:00,
2013-06-07 06:01:00,69.1,61.2,-100.00,NNE,23,0.0,0.0,76,0.00,,,0.00,meteohub,2013-06-07 11:01:00,
2013-06-07 06:03:00,69.1,61.2,-100.00,NNE,23,0.0,0.0,76,0.00,,,0.00,meteohub,2013-06-07 11:03:00,
2013-06-07 06:05:00,69.1,61.2,-100.00,NNE,23,0.0,0.0,76,0.00,,,0.00,meteohub,2013-06-07 11:05:00,
2013-06-07 06:07:00,69.1,61.2,-100.00,NNE,23,0.0,0.0,76,0.00,,,0.00,meteohub,2013-06-07 11:07:00,
2013-06-07 06:09:00,69.1,61.2,-100.00,North,0,0.0,0.0,76,0.00,,,0.00,meteohub,2013-06-07 11:09:00,
2013-06-07 06:13:00,68.9,61.0,-100.00,North,0,0.0,0.0,76,0.00,,,0.00,meteohub,2013-06-07 11:13:00,
2013-06-07 06:15:00,68.9,61.0,-100.00,North,0,0.0,0.0,76,0.00,,,0.00,meteohub,2013-06-07 11:15:00,
2013-06-07 06:17:00,68.7,60.8,-100.00,North,0,0.0,0.0,76,0.00,,,0.00,meteohub,2013-06-07 11:17:00,
2013-06-07 06:21:00,68.7,61.2,-100.00,NNE,23,1.0,0.0,77,0.00,,,0.00,meteohub,2013-06-07 11:21:00,
2013-06-07 06:23:00,68.7,61.2,-100.00,North,0,0.0,0.0,77,0.00,,,0.00,meteohub,2013-06-07 11:23:00,
2013-06-07 06:27:00,68.7,61.2,-100.00,NNE,23,0.0,1.0,77,0.00,,,0.00,meteohub,2013-06-07 11:27:00,
2013-06-07 06:31:00,68.5,61.0,-100.00,NNE,23,0.0,1.0,77,0.00,,,0.00,meteohub,2013-06-07 11:31:00,
2013-06-07 06:33:00,68.5,61.0,-100.00,NE,45,0.0,1.0,77,0.00,,,0.00,meteohub,2013-06-07 11:33:00,
2013-06-07 06:35:00,68.4,61.2,-100.00,NNE,23,0.0,1.0,78,0.00,,,0.00,meteohub,2013-06-07 11:35:00,
2013-06-07 06:39:00,68.4,61.2,-100.00,NE,45,0.0,1.0,78,0.00,,,0.00,meteohub,2013-06-07 11:39:00,
2013-06-07 06:43:00,68.4,61.2,-100.00,NNE,23,1.0,2.0,78,0.00,,,0.00,meteohub,2013-06-07 11:43:00,
2013-06-07 06:47:00,68.4,61.2,-100.00,NNE,23,2.0,2.0,78,0.00,,,0.00,meteohub,2013-06-07 11:47:00,
2013-06-07 06:49:00,68.2,61.3,-100.00,NE,45,0.0,2.0,79,0.00,,,0.00,meteohub,2013-06-07 11:49:00,
2013-06-07 06:53:00,68.2,61.3,-100.00,NNW,338,0.0,2.0,79,0.00,,,0.00,meteohub,2013-06-07 11:53:00,
2013-06-07 06:55:00,68.2,61.3,-100.00,NE,45,1.0,2.0,79,0.00,,,0.00,meteohub,2013-06-07 11:55:00,
2013-06-07 06:59:00,68.2,61.3,-100.00,NE,45,3.0,3.0,79,0.00,,,0.00,meteohub,2013-06-07 11:59:00,
2013-06-07 07:01:00,68.2,61.3,-100.00,NNE,23,2.0,3.0,79,0.00,,,0.00,meteohub,2013-06-07 12:01:00,
2013-06-07 07:05:00,68.2,61.3,-100.00,North,0,2.0,3.0,79,0.00,,,0.00,meteohub,2013-06-07 12:05:00,
2013-06-07 07:07:00,68.2,61.3,-100.00,North,0,2.0,3.0,79,0.00,,,0.00,meteohub,2013-06-07 12:07:00,
2013-06-07 07:09:00,68.2,61.3,-100.00,NNE,23,0.0,3.0,79,0.00,,,0.00,meteohub,2013-06-07 12:09:00,
2013-06-07 07:11:00,68.2,61.3,-100.00,NNE,23,0.0,3.0,79,0.00,,,0.00,meteohub,2013-06-07 12:11:00,
2013-06-07 07:13:00,68.2,61.3,-100.00,NE,45,4.0,4.0,79,0.00,,,0.00,meteohub,2013-06-07 12:13:00,
2013-06-07 07:15:00,68.4,61.9,-100.00,NE,45,0.0,3.0,80,0.00,,,0.00,meteohub,2013-06-07 12:15:00,
2013-06-07 07:22:00,68.5,62.1,-100.00,NNE,23,1.0,4.0,80,0.00,,,0.00,meteohub,2013-06-07 12:22:00,
2013-06-07 07:26:00,68.5,62.1,-100.00,North,0,4.0,4.0,80,0.00,,,0.00,meteohub,2013-06-07 12:26:00,
2013-06-07 07:28:00,68.5,62.1,-100.00,NE,45,3.0,4.0,80,0.00,,,0.00,meteohub,2013-06-07 12:28:00,
2013-06-07 07:32:00,68.5,62.1,-100.00,NNE,23,0.0,4.0,80,0.00,,,0.00,meteohub,2013-06-07 12:32:00,
2013-06-07 07:34:00,68.7,62.2,-100.00,NE,45,0.0,4.0,80,0.00,,,0.00,meteohub,2013-06-07 12:34:00,
2013-06-07 07:38:00,68.5,62.1,-100.00,West,270,4.0,4.0,80,0.00,,,0.00,meteohub,2013-06-07 12:38:00,
2013-06-07 07:40:00,68.7,62.2,-100.00,NNE,23,4.0,4.0,80,0.00,,,0.00,meteohub,2013-06-07 12:40:00,
2013-06-07 07:44:00,68.7,62.2,-100.00,North,0,0.0,4.0,80,0.00,,,0.00,meteohub,2013-06-07 12:44:00,
2013-06-07 07:47:00,68.7,62.2,-100.00,NE,45,1.0,4.0,80,0.00,,,0.00,meteohub,2013-06-07 12:47:00,
2013-06-07 07:48:00,68.9,62.4,-100.00,South,180,2.0,4.0,80,0.00,,,0.00,meteohub,2013-06-07 12:48:00,
2013-06-07 07:50:00,68.9,62.4,-100.00,NNE,23,0.0,4.0,80,0.00,,,0.00,meteohub,2013-06-07 12:50:00,
2013-06-07 07:54:00,69.1,62.2,-100.00,NW,315,2.0,4.0,79,0.00,,,0.00,meteohub,2013-06-07 12:54:00,
2013-06-07 07:56:00,69.1,62.2,-100.00,West,270,1.0,4.0,79,0.00,,,0.00,meteohub,2013-06-07 12:56:00,
2013-06-07 08:00:00,69.3,62.8,-100.00,NNE,23,7.0,7.0,80,0.00,,,0.00,meteohub,2013-06-07 13:00:00,
2013-06-07 08:04:00,69.4,62.6,-100.00,NE,45,4.0,4.0,79,0.00,,,0.00,meteohub,2013-06-07 13:04:00,
2013-06-07 08:06:00,69.4,62.6,-100.00,NNE,23,2.0,7.0,79,0.00,,,0.00,meteohub,2013-06-07 13:06:00,
2013-06-07 08:10:00,69.6,62.8,-100.00,North,0,1.0,7.0,79,0.00,,,0.00,meteohub,2013-06-07 13:10:00,
2013-06-07 08:12:00,70.0,62.8,-100.00,NNE,23,0.0,7.0,78,0.00,,,0.00,meteohub,2013-06-07 13:12:00,
2013-06-07 08:17:00,70.0,62.8,-100.00,NNE,23,2.0,4.0,78,0.00,,,0.00,meteohub,2013-06-07 13:17:00,
2013-06-07 08:18:00,70.0,62.4,-100.00,North,0,1.0,4.0,77,0.00,,,0.00,meteohub,2013-06-07 13:18:00,
2013-06-07 08:22:00,70.2,63.0,-100.00,NNE,23,2.0,2.0,78,0.00,,,0.00,meteohub,2013-06-07 13:22:00,
2013-06-07 08:24:00,70.2,62.6,-100.00,NNE,23,3.0,3.0,77,0.00,,,0.00,meteohub,2013-06-07 13:24:00,
2013-06-07 08:28:00,70.2,62.6,-100.00,NNE,23,2.0,2.0,77,0.00,,,0.00,meteohub,2013-06-07 13:28:00,
2013-06-07 08:34:00,70.3,62.8,-100.00,NNE,23,1.0,3.0,77,0.00,,,0.00,meteohub,2013-06-07 13:34:00,
2013-06-07 08:36:00,70.3,62.8,-100.00,NNE,23,1.0,3.0,77,0.00,,,0.00,meteohub,2013-06-07 13:36:00,
2013-06-07 08:38:00,70.3,62.8,-100.00,WNW,293,0.0,3.0,77,0.00,,,0.00,meteohub,2013-06-07 13:38:00,
2013-06-07 08:42:00,70.3,62.8,-100.00,NNE,23,0.0,3.0,77,0.00,,,0.00,meteohub,2013-06-07 13:42:00,
2013-06-07 08:44:00,70.3,62.4,-100.00,NNW,338,3.0,3.0,76,0.00,,,0.00,meteohub,2013-06-07 13:44:00,
2013-06-07 08:47:00,70.5,62.6,-100.00,NNW,338,1.0,1.0,76,0.00,,,0.00,meteohub,2013-06-07 13:47:00,
2013-06-07 08:53:00,70.5,62.2,-100.00,North,0,2.0,3.0,75,0.00,,,0.00,meteohub,2013-06-07 13:53:00,
2013-06-07 08:55:00,70.3,62.1,-100.00,NW,315,3.0,3.0,75,0.00,,,0.00,meteohub,2013-06-07 13:55:00,
2013-06-07 08:57:00,70.5,62.2,-100.00,WSW,248,1.0,3.0,75,0.00,,,0.00,meteohub,2013-06-07 13:57:00,
2013-06-07 08:59:00,70.5,62.2,-100.00,North,0,3.0,3.0,75,0.00,,,0.00,meteohub,2013-06-07 13:59:00,
2013-06-07 09:05:00,70.5,62.2,-100.00,NNE,23,2.0,3.0,75,0.00,,,0.00,meteohub,2013-06-07 14:05:00,
2013-06-07 09:07:00,70.7,62.4,-100.00,North,0,3.0,3.0,75,0.00,,,0.00,meteohub,2013-06-07 14:07:00,
2013-06-07 09:09:00,70.7,62.4,-100.00,North,0,3.0,3.0,75,0.00,,,0.00,meteohub,2013-06-07 14:09:00,
2013-06-07 09:11:00,70.7,62.4,-100.00,NE,45,2.0,3.0,75,0.00,,,0.00,meteohub,2013-06-07 14:11:00,
2013-06-07 09:13:00,70.5,62.2,-100.00,NE,45,3.0,3.0,75,0.00,,,0.00,meteohub,2013-06-07 14:13:00,
2013-06-07 09:15:00,70.7,62.4,-100.00,NE,45,2.0,3.0,75,0.00,,,0.00,meteohub,2013-06-07 14:15:00,
2013-06-07 09:17:00,70.7,62.4,-100.00,NE,45,2.0,3.0,75,0.00,,,0.00,meteohub,2013-06-07 14:17:00,
2013-06-07 09:23:00,70.5,61.9,-100.00,NE,45,2.0,3.0,74,0.00,,,0.00,meteohub,2013-06-07 14:23:00,
2013-06-07 09:25:00,70.5,61.9,-100.00,NNE,23,2.0,8.0,74,0.00,,,0.00,meteohub,2013-06-07 14:25:00,
2013-06-07 09:27:00,70.5,61.9,-100.00,NNE,23,2.0,8.0,74,0.00,,,0.00,meteohub,2013-06-07 14:27:00,
2013-06-07 09:31:00,70.5,61.5,-100.00,North,0,3.0,8.0,73,0.00,,,0.00,meteohub,2013-06-07 14:31:00,
2013-06-07 09:32:00,70.5,61.5,-100.00,North,0,3.0,8.0,73,0.00,,,0.00,meteohub,2013-06-07 14:32:00,
2013-06-07 09:37:00,70.5,61.5,-100.00,NE,45,0.0,5.0,73,0.00,,,0.00,meteohub,2013-06-07 14:37:00,
2013-06-07 09:39:00,70.5,61.5,-100.00,NNE,23,1.0,5.0,73,0.00,,,0.00,meteohub,2013-06-07 14:39:00,
2013-06-07 09:41:00,70.5,61.5,-100.00,NE,45,0.0,3.0,73,0.00,,,0.00,meteohub,2013-06-07 14:41:00,
2013-06-07 09:45:00,70.5,61.0,-100.00,NE,45,1.0,3.0,72,0.00,,,0.00,meteohub,2013-06-07 14:45:00,
2013-06-07 09:47:00,70.5,61.0,-100.00,NE,45,1.0,3.0,72,0.00,,,0.00,meteohub,2013-06-07 14:47:00,
2013-06-07 09:51:00,70.5,61.5,-100.00,NNE,23,0.0,1.0,73,0.00,,,0.00,meteohub,2013-06-07 14:51:00,
2013-06-07 09:53:00,70.5,61.5,-100.00,NNE,23,0.0,1.0,73,0.00,,,0.00,meteohub,2013-06-07 14:53:00,
2013-06-07 09:55:00,70.5,61.5,-100.00,North,0,0.0,1.0,73,0.00,,,0.00,meteohub,2013-06-07 14:55:00,
2013-06-07 09:57:00,70.7,61.7,-100.00,North,0,2.0,2.0,73,0.00,,,0.00,meteohub,2013-06-07 14:57:00,
2013-06-07 10:00:00,70.7,61.2,-100.00,NNE,23,0.0,1.0,72,0.00,,,0.00,meteohub,2013-06-07 15:00:00,
2013-06-07 10:02:00,70.7,61.2,-100.00,ENE,68,3.0,3.0,72,0.00,,,0.00,meteohub,2013-06-07 15:02:00,
2013-06-07 10:04:00,70.7,61.2,-100.00,North,0,0.0,2.0,72,0.00,,,0.00,meteohub,2013-06-07 15:04:00,
2013-06-07 10:06:00,70.7,61.2,-100.00,West,270,1.0,3.0,72,0.00,,,0.00,meteohub,2013-06-07 15:06:00,
2013-06-07 10:08:00,70.7,61.2,-100.00,NW,315,0.0,3.0,72,0.00,,,0.00,meteohub,2013-06-07 15:08:00,
2013-06-07 10:10:00,70.7,61.2,-100.00,NW,315,0.0,3.0,72,0.00,,,0.00,meteohub,2013-06-07 15:10:00,
2013-06-07 10:12:00,70.7,61.2,-100.00,West,270,0.0,3.0,72,0.00,,,0.00,meteohub,2013-06-07 15:12:00,
2013-06-07 10:17:00,70.9,61.3,-100.00,NNE,23,0.0,3.0,72,0.00,,,0.00,meteohub,2013-06-07 15:17:00,
2013-06-07 10:18:00,70.9,61.3,-100.00,NE,45,1.0,3.0,72,0.00,,,0.00,meteohub,2013-06-07 15:18:00,
2013-06-07 10:22:00,71.2,61.7,-100.00,NNE,23,0.0,1.0,72,0.00,,,0.00,meteohub,2013-06-07 15:22:00,
2013-06-07 10:24:00,71.2,61.7,-100.00,NNE,23,0.0,1.0,72,0.00,,,0.00,meteohub,2013-06-07 15:24:00,
2013-06-07 10:26:00,71.2,61.7,-100.00,NNE,23,0.0,3.0,72,0.00,,,0.00,meteohub,2013-06-07 15:26:00,
2013-06-07 10:30:00,71.2,61.7,-100.00,North,0,0.0,3.0,72,0.00,,,0.00,meteohub,2013-06-07 15:30:00,
2013-06-07 10:32:00,71.4,61.9,-100.00,North,0,0.0,3.0,72,0.00,,,0.00,meteohub,2013-06-07 15:32:00,
2013-06-07 10:38:00,71.6,62.1,-100.00,NNE,23,0.0,3.0,72,0.00,,,0.00,meteohub,2013-06-07 15:38:00,
2013-06-07 10:40:00,71.6,62.1,-100.00,NNE,23,0.0,0.0,72,0.00,,,0.00,meteohub,2013-06-07 15:40:00,
2013-06-07 10:42:00,71.4,61.9,-100.00,North,0,0.0,0.0,72,0.00,,,0.00,meteohub,2013-06-07 15:42:00,
2013-06-07 10:46:00,71.4,61.9,-100.00,NNE,23,0.0,0.0,72,0.00,,,0.00,meteohub,2013-06-07 15:46:00,
2013-06-07 10:48:00,71.4,61.9,-100.00,NNE,23,0.0,0.0,72,0.00,,,0.00,meteohub,2013-06-07 15:48:00,
2013-06-07 10:52:00,71.4,61.9,-100.00,NE,45,0.0,0.0,72,0.00,,,0.00,meteohub,2013-06-07 15:52:00,
2013-06-07 10:54:00,71.4,61.9,-100.00,NNE,23,0.0,0.0,72,0.00,,,0.00,meteohub,2013-06-07 15:54:00,
2013-06-07 10:56:00,71.4,61.9,-100.00,NNE,23,0.0,0.0,72,0.00,,,0.00,meteohub,2013-06-07 15:56:00,
2013-06-07 10:58:00,71.4,61.9,-100.00,NNE,23,0.0,0.0,72,0.00,,,0.00,meteohub,2013-06-07 15:58:00,
2013-06-07 11:00:00,71.4,61.9,-100.00,NNE,23,0.0,0.0,72,0.00,,,0.00,meteohub,2013-06-07 16:00:00,
2013-06-07 11:02:00,71.4,61.9,-100.00,North,0,1.0,0.0,72,0.00,,,0.00,meteohub,2013-06-07 16:02:00,
2013-06-07 11:04:00,71.4,61.9,-100.00,North,0,2.0,0.0,72,0.00,,,0.00,meteohub,2013-06-07 16:04:00,
2013-06-07 11:08:00,71.4,61.9,-100.00,NE,45,0.0,0.0,72,0.00,,,0.00,meteohub,2013-06-07 16:08:00,
2013-06-07 11:10:00,71.4,61.9,-100.00,NE,45,0.0,2.0,72,0.00,,,0.00,meteohub,2013-06-07 16:10:00,
2013-06-07 11:12:00,71.4,61.9,-100.00,NNE,23,2.0,2.0,72,0.00,,,0.00,meteohub,2013-06-07 16:12:00,
2013-06-07 11:14:00,71.4,61.9,-100.00,NE,45,0.0,2.0,72,0.00,,,0.00,meteohub,2013-06-07 16:14:00,
2013-06-07 11:18:00,71.4,61.9,-100.00,NNE,23,2.0,2.0,72,0.00,,,0.00,meteohub,2013-06-07 16:18:00,
2013-06-07 11:20:00,71.4,61.9,-100.00,NE,45,1.0,2.0,72,0.00,,,0.00,meteohub,2013-06-07 16:20:00,
2013-06-07 11:27:00,71.6,62.1,-100.00,North,0,6.0,6.0,72,0.00,,,0.00,meteohub,2013-06-07 16:27:00,
2013-06-07 11:29:00,71.6,62.1,-100.00,NNW,338,3.0,3.0,72,0.00,,,0.00,meteohub,2013-06-07 16:29:00,
2013-06-07 11:33:00,71.6,62.1,-100.00,ESE,113,0.0,6.0,72,0.00,,,0.00,meteohub,2013-06-07 16:33:00,
2013-06-07 11:35:00,71.8,62.2,-100.00,ESE,113,0.0,6.0,72,0.00,,,0.00,meteohub,2013-06-07 16:35:00,
2013-06-07 11:37:00,71.8,62.2,-100.00,North,0,0.0,6.0,72,0.00,,,0.00,meteohub,2013-06-07 16:37:00,
2013-06-07 11:39:00,71.8,62.2,-100.00,NE,45,1.0,6.0,72,0.00,,,0.00,meteohub,2013-06-07 16:39:00,
2013-06-07 11:43:00,71.8,62.2,-100.00,NNE,23,2.0,6.0,72,0.00,,,0.00,meteohub,2013-06-07 16:43:00,
2013-06-07 11:47:00,72.0,62.4,-100.00,ENE,68,0.0,3.0,72,0.00,,,0.00,meteohub,2013-06-07 16:47:00,
2013-06-07 11:49:00,72.0,62.4,-100.00,ENE,68,0.0,3.0,72,0.00,,,0.00,meteohub,2013-06-07 16:49:00,
2013-06-07 11:51:00,72.0,62.4,-100.00,East,90,0.0,2.0,72,0.00,,,0.00,meteohub,2013-06-07 16:51:00,
2013-06-07 11:53:00,72.1,62.6,-100.00,West,270,0.0,2.0,72,0.00,,,0.00,meteohub,2013-06-07 16:53:00,
2013-06-07 11:57:00,72.3,62.8,-100.00,South,180,2.0,2.0,72,0.00,,,0.00,meteohub,2013-06-07 16:57:00,
2013-06-07 11:59:00,72.3,62.4,-100.00,NNE,23,0.0,2.0,71,0.00,,,0.00,meteohub,2013-06-07 16:59:00,
2013-06-07 12:01:00,72.3,62.4,-100.00,NNE,23,2.0,2.0,71,0.00,,,0.00,meteohub,2013-06-07 17:01:00,
2013-06-07 12:02:00,72.3,62.4,-100.00,NNE,23,2.0,2.0,71,0.00,,,0.00,meteohub,2013-06-07 17:02:00,
2013-06-07 12:03:00,72.3,62.1,-100.00,NE,45,2.0,2.0,70,0.00,,,0.00,meteohub,2013-06-07 17:03:00,
2013-06-07 12:07:00,72.7,62.2,-100.00,ENE,68,0.0,2.0,70,0.00,,,0.00,meteohub,2013-06-07 17:07:00,
2013-06-07 12:09:00,72.7,62.2,-100.00,WSW,248,0.0,2.0,70,0.00,,,0.00,meteohub,2013-06-07 17:09:00,
2013-06-07 12:11:00,72.9,62.1,-100.00,ESE,113,0.0,2.0,69,0.00,,,0.00,meteohub,2013-06-07 17:11:00,
2013-06-07 12:13:00,73.0,62.2,-100.00,North,0,3.0,3.0,69,0.00,,,0.00,meteohub,2013-06-07 17:13:00,
2013-06-07 12:15:00,73.0,62.2,-100.00,SE,135,0.0,2.0,69,0.00,,,0.00,meteohub,2013-06-07 17:15:00,
2013-06-07 12:17:00,73.2,62.1,-100.00,NE,45,0.0,2.0,68,0.00,,,0.00,meteohub,2013-06-07 17:17:00,
2013-06-07 12:21:00,73.2,62.1,-100.00,NW,315,1.0,3.0,68,0.00,,,0.00,meteohub,2013-06-07 17:21:00,
2013-06-07 12:23:00,73.2,61.5,-100.00,NNE,23,1.0,3.0,67,0.00,,,0.00,meteohub,2013-06-07 17:23:00,
2013-06-07 12:26:00,73.2,61.5,-100.00,NNE,23,1.0,3.0,67,0.00,,,0.00,meteohub,2013-06-07 17:26:00,
2013-06-07 12:32:00,73.4,61.7,-100.00,NNE,23,2.0,2.0,67,0.00,,,0.00,meteohub,2013-06-07 17:32:00,
2013-06-07 12:34:00,73.6,61.9,-100.00,WNW,293,0.0,1.0,67,0.00,,,0.00,meteohub,2013-06-07 17:34:00,
2013-06-07 12:36:00,73.6,62.4,-100.00,WNW,293,0.0,2.0,68,0.00,,,0.00,meteohub,2013-06-07 17:36:00,
2013-06-07 12:38:00,73.6,62.4,-100.00,WNW,293,0.0,2.0,68,0.00,,,0.00,meteohub,2013-06-07 17:38:00,
2013-06-07 12:42:00,73.6,62.4,-100.00,SSW,203,0.0,2.0,68,0.00,,,0.00,meteohub,2013-06-07 17:42:00,
2013-06-07 12:44:00,73.8,62.6,-100.00,SSW,203,0.0,2.0,68,0.00,,,0.00,meteohub,2013-06-07 17:44:00,
2013-06-07 12:47:00,73.8,62.6,-100.00,SSW,203,0.0,2.0,68,0.00,,,0.00,meteohub,2013-06-07 17:47:00,
2013-06-07 12:48:00,73.9,62.2,-100.00,SSW,203,0.0,2.0,67,0.00,,,0.00,meteohub,2013-06-07 17:48:00,
2013-06-07 12:50:00,73.9,62.2,-100.00,NE,45,0.0,0.0,67,0.00,,,0.00,meteohub,2013-06-07 17:50:00,
2013-06-07 12:52:00,73.9,61.9,-100.00,NE,45,0.0,0.0,66,0.00,,,0.00,meteohub,2013-06-07 17:52:00,
2013-06-07 12:54:00,73.9,61.9,-100.00,NE,45,0.0,0.0,66,0.00,,,0.00,meteohub,2013-06-07 17:54:00,
2013-06-07 12:58:00,73.9,62.2,-100.00,NE,45,0.0,0.0,67,0.00,,,0.00,meteohub,2013-06-07 17:58:00,
2013-06-07 13:00:00,74.1,62.1,-100.00,NE,45,0.0,0.0,66,0.00,,,0.00,meteohub,2013-06-07 18:00:00,
2013-06-07 13:04:00,74.1,62.1,-100.00,North,0,0.0,0.0,66,0.00,,,0.00,meteohub,2013-06-07 18:04:00,
2013-06-07 13:07:00,74.1,62.1,-100.00,West,270,0.0,0.0,66,0.00,,,0.00,meteohub,2013-06-07 18:07:00,
2013-06-07 13:09:00,74.1,62.1,-100.00,NE,45,0.0,0.0,66,0.00,,,0.00,meteohub,2013-06-07 18:09:00,
2013-06-07 13:14:00,74.3,61.7,-100.00,WNW,293,0.0,0.0,65,0.00,,,0.00,meteohub,2013-06-07 18:14:00,
2013-06-07 13:17:00,74.3,61.7,-100.00,SSE,158,2.0,0.0,65,0.00,,,0.00,meteohub,2013-06-07 18:17:00,
2013-06-07 13:18:00,74.3,62.2,-100.00,ENE,68,0.0,0.0,66,0.00,,,0.00,meteohub,2013-06-07 18:18:00,
2013-06-07 13:20:00,74.5,62.4,-100.00,WSW,248,0.0,2.0,66,0.00,,,0.00,meteohub,2013-06-07 18:20:00,
2013-06-07 13:22:00,74.5,62.4,-100.00,WNW,293,1.0,2.0,66,0.00,,,0.00,meteohub,2013-06-07 18:22:00,
2013-06-07 13:26:00,74.7,62.6,-100.00,WNW,293,0.0,2.0,66,0.00,,,0.00,meteohub,2013-06-07 18:26:00,
2013-06-07 13:29:00,74.8,62.8,-100.00,WSW,248,0.0,2.0,66,0.00,,,0.00,meteohub,2013-06-07 18:29:00,
2013-06-07 13:31:00,74.7,62.6,-100.00,SSE,158,0.0,2.0,66,0.00,,,0.00,meteohub,2013-06-07 18:31:00,
2013-06-07 13:32:00,74.7,62.6,-100.00,SSE,158,0.0,2.0,66,0.00,,,0.00,meteohub,2013-06-07 18:32:00,
2013-06-07 13:33:00,74.8,62.2,-100.00,South,180,2.0,2.0,65,0.00,,,0.00,meteohub,2013-06-07 18:33:00,
2013-06-07 13:39:00,74.8,62.2,-100.00,West,270,0.0,1.0,65,0.00,,,0.00,meteohub,2013-06-07 18:39:00,
2013-06-07 13:41:00,75.0,62.4,-100.00,WNW,293,0.0,2.0,65,0.00,,,0.00,meteohub,2013-06-07 18:41:00,
2013-06-07 13:43:00,75.0,62.4,-100.00,NNW,338,0.0,2.0,65,0.00,,,0.00,meteohub,2013-06-07 18:43:00,
2013-06-07 13:45:00,75.0,62.4,-100.00,NNW,338,0.0,2.0,65,0.00,,,0.00,meteohub,2013-06-07 18:45:00,
2013-06-07 13:47:00,75.0,62.1,-100.00,NNW,338,0.0,2.0,64,0.00,,,0.00,meteohub,2013-06-07 18:47:00,
2013-06-07 13:49:00,75.0,62.4,-100.00,South,180,3.0,3.0,65,0.00,,,0.00,meteohub,2013-06-07 18:49:00,
2013-06-07 13:51:00,75.2,62.2,-100.00,South,180,0.0,3.0,64,0.00,,,0.00,meteohub,2013-06-07 18:51:00,
2013-06-07 13:55:00,75.4,61.9,-100.00,SE,135,0.0,3.0,63,0.00,,,0.00,meteohub,2013-06-07 18:55:00,
2013-06-07 14:01:00,75.6,62.1,-100.00,NNW,338,0.0,3.0,63,0.00,,,0.00,meteohub,2013-06-07 19:01:00,
2013-06-07 14:02:00,75.6,62.1,-100.00,NNW,338,0.0,3.0,63,0.00,,,0.00,meteohub,2013-06-07 19:02:00,
2013-06-07 14:05:00,75.7,61.9,-100.00,SSE,158,2.0,0.0,62,0.00,,,0.00,meteohub,2013-06-07 19:05:00,
2013-06-07 14:07:00,75.7,61.3,-100.00,ESE,113,0.0,0.0,61,0.00,,,0.00,meteohub,2013-06-07 19:07:00,
2013-06-07 14:12:00,75.9,61.9,-100.00,SW,225,2.0,2.0,62,0.00,,,0.00,meteohub,2013-06-07 19:12:00,
2013-06-07 14:16:00,75.9,61.5,-100.00,SSE,158,0.0,2.0,61,0.00,,,0.00,meteohub,2013-06-07 19:16:00,
2013-06-07 14:18:00,75.9,61.5,-100.00,SE,135,1.0,2.0,61,0.00,,,0.00,meteohub,2013-06-07 19:18:00,
2013-06-07 14:22:00,75.9,61.5,-100.00,SSW,203,0.0,2.0,61,0.00,,,0.00,meteohub,2013-06-07 19:22:00,
2013-06-07 14:24:00,75.9,61.5,-100.00,East,90,0.0,2.0,61,0.00,,,0.00,meteohub,2013-06-07 19:24:00,
2013-06-07 14:26:00,75.9,61.5,-100.00,East,90,0.0,2.0,61,0.00,,,0.00,meteohub,2013-06-07 19:26:00,
2013-06-07 14:30:00,75.9,61.0,-100.00,ESE,113,0.0,1.0,60,0.00,,,0.00,meteohub,2013-06-07 19:30:00,
2013-06-07 14:32:00,75.9,61.0,-100.00,ESE,113,0.0,1.0,60,0.00,,,0.00,meteohub,2013-06-07 19:32:00,
2013-06-07 14:36:00,75.9,61.0,-100.00,ENE,68,0.0,0.0,60,0.00,,,0.00,meteohub,2013-06-07 19:36:00,
2013-06-07 14:40:00,75.9,61.5,-100.00,SW,225,0.0,0.0,61,0.00,,,0.00,meteohub,2013-06-07 19:40:00,
2013-06-07 14:42:00,76.1,61.7,-100.00,SW,225,0.0,0.0,61,0.00,,,0.00,meteohub,2013-06-07 19:42:00,
2013-06-07 14:49:00,76.3,61.9,-100.00,South,180,0.0,0.0,61,0.00,,,0.00,meteohub,2013-06-07 19:49:00,
2013-06-07 14:51:00,76.3,61.3,-100.00,ESE,113,0.0,2.0,60,0.00,,,0.00,meteohub,2013-06-07 19:51:00,
2013-06-07 14:57:00,76.3,61.3,-100.00,SSW,203,0.0,2.0,60,0.00,,,0.00,meteohub,2013-06-07 19:57:00,
2013-06-07 14:59:00,76.3,61.0,-100.00,NE,45,1.0,2.0,59,0.00,,,0.00,meteohub,2013-06-07 19:59:00,
2013-06-07 15:02:00,76.1,60.8,-100.00,ENE,68,0.0,2.0,59,0.00,,,0.00,meteohub,2013-06-07 20:02:00,
2013-06-07 15:03:00,76.1,60.8,-100.00,ENE,68,0.0,2.0,59,0.00,,,0.00,meteohub,2013-06-07 20:03:00,
2013-06-07 15:05:00,76.1,61.2,-100.00,NE,45,1.0,1.0,60,0.00,,,0.00,meteohub,2013-06-07 20:05:00,
2013-06-07 15:09:00,75.9,61.0,-100.00,NNE,23,0.0,1.0,60,0.00,,,0.00,meteohub,2013-06-07 20:09:00,
2013-06-07 15:11:00,75.9,61.0,-100.00,South,180,0.0,2.0,60,0.00,,,0.00,meteohub,2013-06-07 20:11:00,
2013-06-07 15:13:00,75.9,61.0,-100.00,East,90,0.0,2.0,60,0.00,,,0.00,meteohub,2013-06-07 20:13:00,
2013-06-07 15:17:00,75.9,61.0,-100.00,ESE,113,0.0,2.0,60,0.00,,,0.00,meteohub,2013-06-07 20:17:00,
2013-06-07 15:21:00,75.9,61.0,-100.00,West,270,0.0,2.0,60,0.00,,,0.00,meteohub,2013-06-07 20:21:00,
2013-06-07 15:23:00,76.1,61.2,-100.00,SSE,158,1.0,2.0,60,0.00,,,0.00,meteohub,2013-06-07 20:23:00,
2013-06-07 15:30:00,76.3,61.3,-100.00,SE,135,0.0,1.0,60,0.00,,,0.00,meteohub,2013-06-07 20:30:00,
2013-06-07 15:32:00,76.5,61.5,-100.00,SE,135,0.0,1.0,60,0.00,,,0.00,meteohub,2013-06-07 20:32:00,
2013-06-07 15:34:00,76.5,61.5,-100.00,SE,135,0.0,1.0,60,0.00,,,0.00,meteohub,2013-06-07 20:34:00,
2013-06-07 15:38:00,76.6,61.7,-100.00,NE,45,0.0,1.0,60,0.00,,,0.00,meteohub,2013-06-07 20:38:00,
2013-06-07 15:42:00,76.6,61.7,-100.00,ESE,113,2.0,2.0,60,0.00,,,0.00,meteohub,2013-06-07 20:42:00,
2013-06-07 15:45:00,76.6,61.7,-100.00,ESE,113,2.0,2.0,60,0.00,,,0.00,meteohub,2013-06-07 20:45:00,
2013-06-07 15:47:00,76.6,61.2,-100.00,East,90,0.0,2.0,59,0.00,,,0.00,meteohub,2013-06-07 20:47:00,
2013-06-07 15:49:00,76.6,61.2,-100.00,ENE,68,0.0,2.0,59,0.00,,,0.00,meteohub,2013-06-07 20:49:00,
2013-06-07 15:54:00,76.6,61.2,-100.00,ENE,68,0.0,2.0,59,0.00,,,0.00,meteohub,2013-06-07 20:54:00,
2013-06-07 15:57:00,76.8,61.3,-100.00,ESE,113,1.0,2.0,59,0.00,,,0.00,meteohub,2013-06-07 20:57:00,
2013-06-07 16:02:00,76.8,61.3,-100.00,East,90,0.0,1.0,59,0.00,,,0.00,meteohub,2013-06-07 21:02:00,
2013-06-07 16:04:00,77.2,61.7,-100.00,West,270,0.0,1.0,59,0.00,,,0.00,meteohub,2013-06-07 21:04:00,
2013-06-07 16:06:00,77.2,61.7,-100.00,West,270,0.0,1.0,59,0.00,,,0.00,meteohub,2013-06-07 21:06:00,
2013-06-07 16:08:00,77.2,62.2,-100.00,WNW,293,0.0,1.0,60,0.00,,,0.00,meteohub,2013-06-07 21:08:00,
2013-06-07 16:12:00,77.4,61.9,-100.00,South,180,0.0,1.0,59,0.00,,,0.00,meteohub,2013-06-07 21:12:00,
2013-06-07 16:14:00,77.4,61.3,-100.00,SW,225,2.0,2.0,58,0.00,,,0.00,meteohub,2013-06-07 21:14:00,
2013-06-07 16:16:00,77.4,61.0,-100.00,SSW,203,0.0,2.0,57,0.00,,,0.00,meteohub,2013-06-07 21:16:00,
2013-06-07 16:19:00,77.4,61.0,-100.00,SSE,158,0.0,2.0,57,0.00,,,0.00,meteohub,2013-06-07 21:19:00,
2013-06-07 16:22:00,77.5,61.2,-100.00,NNE,23,0.0,2.0,57,0.00,,,0.00,meteohub,2013-06-07 21:22:00,
2013-06-07 16:24:00,77.5,61.2,-100.00,NNE,23,0.0,2.0,57,0.00,,,0.00,meteohub,2013-06-07 21:24:00,
2013-06-07 16:26:00,77.5,61.2,-100.00,NNE,23,0.0,2.0,57,0.00,,,0.00,meteohub,2013-06-07 21:26:00,
2013-06-07 16:30:00,77.5,61.2,-100.00,SE,135,0.0,0.0,57,0.00,,,0.00,meteohub,2013-06-07 21:30:00,
2013-06-07 16:32:00,77.5,61.2,-100.00,ESE,113,0.0,0.0,57,0.00,,,0.00,meteohub,2013-06-07 21:32:00,
2013-06-07 16:34:00,77.5,61.5,-100.00,ESE,113,0.0,0.0,58,0.00,,,0.00,meteohub,2013-06-07 21:34:00,
2013-06-07 16:38:00,77.5,61.2,-100.00,ESE,113,0.0,0.0,57,0.00,,,0.00,meteohub,2013-06-07 21:38:00,
2013-06-07 16:43:00,77.5,61.5,-100.00,NNE,23,0.0,0.0,58,0.00,,,0.00,meteohub,2013-06-07 21:43:00,
2013-06-07 16:47:00,77.7,61.7,-100.00,NNE,23,0.0,0.0,58,0.00,,,0.00,meteohub,2013-06-07 21:47:00,
2013-06-07 16:51:00,77.5,61.2,-100.00,South,180,0.0,0.0,57,0.00,,,0.00,meteohub,2013-06-07 21:51:00,
2013-06-07 16:53:00,77.5,61.2,-100.00,South,180,0.0,0.0,57,0.00,,,0.00,meteohub,2013-06-07 21:53:00,
2013-06-07 16:57:00,77.5,61.2,-100.00,ESE,113,0.0,0.0,57,0.00,,,0.00,meteohub,2013-06-07 21:57:00,
2013-06-07 16:59:00,77.5,61.2,-100.00,ESE,113,0.0,0.0,57,0.00,,,0.00,meteohub,2013-06-07 21:59:00,
2013-06-07 17:01:00,77.5,61.2,-100.00,ESE,113,0.0,1.0,57,0.00,,,0.00,meteohub,2013-06-07 22:01:00,
2013-06-07 17:03:00,77.5,61.2,-100.00,SE,135,0.0,1.0,57,0.00,,,0.00,meteohub,2013-06-07 22:03:00,
2013-06-07 17:05:00,77.5,61.2,-100.00,ESE,113,0.0,1.0,57,0.00,,,0.00,meteohub,2013-06-07 22:05:00,
2013-06-07 17:07:00,77.5,61.2,-100.00,SSE,158,0.0,1.0,57,0.00,,,0.00,meteohub,2013-06-07 22:07:00,
2013-06-07 17:09:00,77.5,61.2,-100.00,North,0,0.0,1.0,57,0.00,,,0.00,meteohub,2013-06-07 22:09:00,
2013-06-07 17:14:00,77.5,61.2,-100.00,NNE,23,0.0,1.0,57,0.00,,,0.00,meteohub,2013-06-07 22:14:00,
2013-06-07 17:16:00,77.5,61.2,-100.00,West,270,0.0,0.0,57,0.00,,,0.00,meteohub,2013-06-07 22:16:00,
2013-06-07 17:17:00,77.5,61.2,-100.00,East,90,0.0,0.0,57,0.00,,,0.00,meteohub,2013-06-07 22:17:00,
2013-06-07 17:20:00,77.5,61.2,-100.00,ENE,68,0.0,0.0,57,0.00,,,0.00,meteohub,2013-06-07 22:20:00,
2013-06-07 17:24:00,77.5,61.2,-100.00,SSE,158,0.0,0.0,57,0.00,,,0.00,meteohub,2013-06-07 22:24:00,
2013-06-07 17:26:00,77.5,61.2,-100.00,SSE,158,0.0,0.0,57,0.00,,,0.00,meteohub,2013-06-07 22:26:00,
2013-06-07 17:28:00,77.5,61.2,-100.00,NE,45,0.0,0.0,57,0.00,,,0.00,meteohub,2013-06-07 22:28:00,
2013-06-07 17:30:00,77.5,61.5,-100.00,NE,45,0.0,0.0,58,0.00,,,0.00,meteohub,2013-06-07 22:30:00,
2013-06-07 17:32:00,77.5,61.5,-100.00,SE,135,0.0,0.0,58,0.00,,,0.00,meteohub,2013-06-07 22:32:00,
2013-06-07 17:34:00,77.5,61.2,-100.00,NNE,23,0.0,0.0,57,0.00,,,0.00,meteohub,2013-06-07 22:34:00,
2013-06-07 17:36:00,77.5,61.2,-100.00,ESE,113,0.0,0.0,57,0.00,,,0.00,meteohub,2013-06-07 22:36:00,
2013-06-07 17:38:00,77.5,61.2,-100.00,South,180,0.0,0.0,57,0.00,,,0.00,meteohub,2013-06-07 22:38:00,
2013-06-07 17:40:00,77.5,61.2,-100.00,South,180,0.0,0.0,57,0.00,,,0.00,meteohub,2013-06-07 22:40:00,
2013-06-07 17:44:00,77.5,61.5,-100.00,SE,135,0.0,0.0,58,0.00,,,0.00,meteohub,2013-06-07 22:44:00,
2013-06-07 17:46:00,77.5,61.5,-100.00,WNW,293,0.0,0.0,58,0.00,,,0.00,meteohub,2013-06-07 22:46:00,
2013-06-07 17:47:00,77.5,61.5,-100.00,SSE,158,0.0,0.0,58,0.00,,,0.00,meteohub,2013-06-07 22:47:00,
2013-06-07 17:50:00,77.7,61.7,-100.00,South,180,0.0,0.0,58,0.00,,,0.00,meteohub,2013-06-07 22:50:00,
2013-06-07 17:52:00,77.7,61.3,-100.00,ESE,113,0.0,0.0,57,0.00,,,0.00,meteohub,2013-06-07 22:52:00,
2013-06-07 17:54:00,77.5,61.2,-100.00,North,0,0.0,0.0,57,0.00,,,0.00,meteohub,2013-06-07 22:54:00,
2013-06-07 17:56:00,77.5,61.2,-100.00,NE,45,0.0,0.0,57,0.00,,,0.00,meteohub,2013-06-07 22:56:00,
2013-06-07 17:58:00,77.5,61.5,-100.00,NE,45,0.0,0.0,58,0.00,,,0.00,meteohub,2013-06-07 22:58:00,
2013-06-07 18:02:00,77.5,61.5,-100.00,NE,45,0.0,0.0,58,0.00,,,0.00,meteohub,2013-06-07 23:02:00,
2013-06-07 18:08:00,77.5,61.5,-100.00,SE,135,0.0,0.0,58,0.00,,,0.00,meteohub,2013-06-07 23:08:00,
2013-06-07 18:10:00,77.7,61.3,-100.00,SE,135,0.0,0.0,57,0.00,,,0.00,meteohub,2013-06-07 23:10:00,
2013-06-07 18:16:00,77.7,61.7,-100.00,NNE,23,0.0,0.0,58,0.00,,,0.00,meteohub,2013-06-07 23:16:00,
2013-06-07 18:17:00,77.7,61.7,-100.00,NNE,23,0.0,0.0,58,0.00,,,0.00,meteohub,2013-06-07 23:17:00,
2013-06-07 18:23:00,77.7,61.7,-100.00,South,180,0.0,0.0,58,0.00,,,0.00,meteohub,2013-06-07 23:23:00,
2013-06-07 18:25:00,77.7,61.7,-100.00,ESE,113,0.0,0.0,58,0.00,,,0.00,meteohub,2013-06-07 23:25:00,
2013-06-07 18:27:00,77.7,61.7,-100.00,WNW,293,0.0,0.0,58,0.00,,,0.00,meteohub,2013-06-07 23:27:00,
2013-06-07 18:31:00,77.7,61.7,-100.00,ESE,113,0.0,0.0,58,0.00,,,0.00,meteohub,2013-06-07 23:31:00,
2013-06-07 18:32:00,77.7,61.7,-100.00,ESE,113,0.0,0.0,58,0.00,,,0.00,meteohub,2013-06-07 23:32:00,
2013-06-07 18:33:00,77.7,61.7,-100.00,NE,45,0.0,0.0,58,0.00,,,0.00,meteohub,2013-06-07 23:33:00,
2013-06-07 18:35:00,77.7,61.7,-100.00,NE,45,0.0,0.0,58,0.00,,,0.00,meteohub,2013-06-07 23:35:00,
2013-06-07 18:37:00,77.7,61.7,-100.00,ENE,68,0.0,0.0,58,0.00,,,0.00,meteohub,2013-06-07 23:37:00,
2013-06-07 18:39:00,77.7,61.7,-100.00,ENE,68,0.0,0.0,58,0.00,,,0.00,meteohub,2013-06-07 23:39:00,
2013-06-07 18:43:00,77.7,61.7,-100.00,ESE,113,0.0,0.0,58,0.00,,,0.00,meteohub,2013-06-07 23:43:00,
2013-06-07 18:45:00,77.9,61.9,-100.00,SSW,203,0.0,0.0,58,0.00,,,0.00,meteohub,2013-06-07 23:45:00,
2013-06-07 18:47:00,77.9,61.9,-100.00,ESE,113,2.0,0.0,58,0.00,,,0.00,meteohub,2013-06-07 23:47:00,
2013-06-07 18:52:00,77.9,61.9,-100.00,ENE,68,0.0,2.0,58,0.00,,,0.00,meteohub,2013-06-07 23:52:00,
2013-06-07 18:54:00,78.1,61.5,-100.00,ENE,68,0.0,2.0,57,0.00,,,0.00,meteohub,2013-06-07 23:54:00,
2013-06-07 18:56:00,78.1,61.5,-100.00,ESE,113,2.0,2.0,57,0.00,,,0.00,meteohub,2013-06-07 23:56:00,
2013-06-07 18:58:00,78.1,61.5,-100.00,SSW,203,0.0,2.0,57,0.00,,,0.00,meteohub,2013-06-07 23:58:00,
2013-06-07 19:02:00,78.1,61.5,-100.00,NNW,338,0.0,2.0,57,0.00,,,0.00,meteohub,2013-06-08 00:02:00,
2013-06-07 19:04:00,78.1,61.5,-100.00,ESE,113,1.0,2.0,57,0.00,,,0.00,meteohub,2013-06-08 00:04:00,
2013-06-07 19:10:00,77.9,61.5,-100.00,NE,45,0.0,2.0,57,0.00,,,0.00,meteohub,2013-06-08 00:10:00,
2013-06-07 19:12:00,77.9,61.5,-100.00,North,0,2.0,2.0,57,0.00,,,0.00,meteohub,2013-06-08 00:12:00,
2013-06-07 19:14:00,77.9,61.5,-100.00,North,0,2.0,2.0,57,0.00,,,0.00,meteohub,2013-06-08 00:14:00,
2013-06-07 19:16:00,77.9,61.5,-100.00,NE,45,0.0,2.0,57,0.00,,,0.00,meteohub,2013-06-08 00:16:00,
2013-06-07 19:19:00,77.9,61.5,-100.00,ESE,113,0.0,2.0,57,0.00,,,0.00,meteohub,2013-06-08 00:19:00,
2013-06-07 19:21:00,77.9,61.5,-100.00,ESE,113,0.0,2.0,57,0.00,,,0.00,meteohub,2013-06-08 00:21:00,
2013-06-07 19:27:00,77.5,60.6,-100.00,NE,45,1.0,2.0,56,0.00,,,0.00,meteohub,2013-06-08 00:27:00,
2013-06-07 19:29:00,77.5,61.2,-100.00,ENE,68,0.0,2.0,57,0.00,,,0.00,meteohub,2013-06-08 00:29:00,
2013-06-07 19:33:00,77.5,61.2,-100.00,North,0,0.0,1.0,57,0.00,,,0.00,meteohub,2013-06-08 00:33:00,
2013-06-07 19:35:00,77.5,61.2,-100.00,North,0,0.0,2.0,57,0.00,,,0.00,meteohub,2013-06-08 00:35:00,
2013-06-07 19:37:00,77.5,61.2,-100.00,NNW,338,0.0,2.0,57,0.00,,,0.00,meteohub,2013-06-08 00:37:00,
2013-06-07 19:41:00,77.5,61.2,-100.00,ENE,68,0.0,2.0,57,0.00,,,0.00,meteohub,2013-06-08 00:41:00,
2013-06-07 19:43:00,77.4,61.0,-100.00,SSE,158,0.0,2.0,57,0.00,,,0.00,meteohub,2013-06-08 00:43:00,
2013-06-07 19:45:00,77.2,60.3,-100.00,SSE,158,0.0,2.0,56,0.00,,,0.00,meteohub,2013-06-08 00:45:00,
2013-06-07 19:47:00,77.2,60.3,-100.00,North,0,0.0,2.0,56,0.00,,,0.00,meteohub,2013-06-08 00:47:00,
2013-06-07 19:48:00,77.2,60.3,-100.00,North,0,0.0,2.0,56,0.00,,,0.00,meteohub,2013-06-08 00:48:00,
2013-06-07 19:52:00,76.8,59.9,-100.00,NE,45,0.0,0.0,56,0.00,,,0.00,meteohub,2013-06-08 00:52:00,
2013-06-07 19:56:00,76.8,60.4,-100.00,ESE,113,0.0,0.0,57,0.00,,,0.00,meteohub,2013-06-08 00:56:00,
2013-06-07 19:58:00,76.8,60.4,-100.00,ESE,113,0.0,0.0,57,0.00,,,0.00,meteohub,2013-06-08 00:58:00,
2013-06-07 20:02:00,76.8,60.4,-100.00,ESE,113,0.0,0.0,57,0.00,,,0.00,meteohub,2013-06-08 01:02:00,
2013-06-07 20:04:00,76.6,60.8,-100.00,ESE,113,0.0,0.0,58,0.00,,,0.00,meteohub,2013-06-08 01:04:00,
2013-06-07 20:06:00,76.6,60.8,-100.00,ESE,113,0.0,0.0,58,0.00,,,0.00,meteohub,2013-06-08 01:06:00,
2013-06-07 20:10:00,76.3,61.0,-100.00,ESE,113,0.0,0.0,59,0.00,,,0.00,meteohub,2013-06-08 01:10:00,
2013-06-07 20:13:00,76.3,61.0,-100.00,ESE,113,0.0,0.0,59,0.00,,,0.00,meteohub,2013-06-08 01:13:00,
2013-06-07 20:15:00,76.1,60.8,-100.00,ESE,113,0.0,0.0,59,0.00,,,0.00,meteohub,2013-06-08 01:15:00,
2013-06-07 20:17:00,76.1,60.8,-100.00,ESE,113,0.0,0.0,59,0.00,,,0.00,meteohub,2013-06-08 01:17:00,
2013-06-07 20:21:00,75.9,60.6,-100.00,ESE,113,0.0,0.0,59,0.00,,,0.00,meteohub,2013-06-08 01:21:00,
2013-06-07 20:25:00,75.7,60.4,-100.00,ESE,113,0.0,0.0,59,0.00,,,0.00,meteohub,2013-06-08 01:25:00,
2013-06-07 20:27:00,75.6,60.6,-100.00,ESE,113,0.0,0.0,60,0.00,,,0.00,meteohub,2013-06-08 01:27:00,
2013-06-07 20:29:00,75.4,60.4,-100.00,ESE,113,0.0,0.0,60,0.00,,,0.00,meteohub,2013-06-08 01:29:00,
2013-06-07 20:36:00,75.0,60.6,-100.00,ESE,113,0.0,0.0,61,0.00,,,0.00,meteohub,2013-06-08 01:36:00,
2013-06-07 20:38:00,75.0,60.6,-100.00,ESE,113,0.0,0.0,61,0.00,,,0.00,meteohub,2013-06-08 01:38:00,
2013-06-07 20:44:00,74.7,60.3,-100.00,ESE,113,0.0,0.0,61,0.00,,,0.00,meteohub,2013-06-08 01:44:00,
2013-06-07 20:46:00,74.5,60.1,-100.00,ESE,113,0.0,0.0,61,0.00,,,0.00,meteohub,2013-06-08 01:46:00,
2013-06-07 20:47:00,74.3,60.4,-100.00,ESE,113,0.0,0.0,62,0.00,,,0.00,meteohub,2013-06-08 01:47:00,
2013-06-07 20:48:00,74.3,60.4,-100.00,ESE,113,0.0,0.0,62,0.00,,,0.00,meteohub,2013-06-08 01:48:00,
2013-06-07 20:54:00,73.9,60.1,-100.00,ESE,113,0.0,0.0,62,0.00,,,0.00,meteohub,2013-06-08 01:54:00,
2013-06-07 20:57:00,73.8,60.4,-100.00,ESE,113,0.0,0.0,63,0.00,,,0.00,meteohub,2013-06-08 01:57:00,
2013-06-07 21:02:00,73.4,60.1,-100.00,ESE,113,0.0,0.0,63,0.00,,,0.00,meteohub,2013-06-08 02:02:00,
2013-06-07 21:07:00,73.2,60.3,-100.00,ESE,113,0.0,0.0,64,0.00,,,0.00,meteohub,2013-06-08 02:07:00,
2013-06-07 21:09:00,73.0,60.1,-100.00,ESE,113,0.0,0.0,64,0.00,,,0.00,meteohub,2013-06-08 02:09:00,
2013-06-07 21:11:00,72.9,59.9,-100.00,ESE,113,0.0,0.0,64,0.00,,,0.00,meteohub,2013-06-08 02:11:00,
2013-06-07 21:13:00,72.7,59.7,-100.00,ESE,113,0.0,0.0,64,0.00,,,0.00,meteohub,2013-06-08 02:13:00,
2013-06-07 21:17:00,72.5,60.1,-100.00,ESE,113,0.0,0.0,65,0.00,,,0.00,meteohub,2013-06-08 02:17:00,
2013-06-07 21:18:00,72.5,60.1,-100.00,ESE,113,0.0,0.0,65,0.00,,,0.00,meteohub,2013-06-08 02:18:00,
2013-06-07 21:22:00,72.3,59.9,-100.00,ESE,113,0.0,0.0,65,0.00,,,0.00,meteohub,2013-06-08 02:22:00,
2013-06-07 21:24:00,72.1,60.1,-100.00,ESE,113,0.0,0.0,66,0.00,,,0.00,meteohub,2013-06-08 02:24:00,
2013-06-07 21:28:00,72.0,59.9,-100.00,ESE,113,0.0,0.0,66,0.00,,,0.00,meteohub,2013-06-08 02:28:00,
2013-06-07 21:30:00,71.8,59.7,-100.00,ESE,113,0.0,0.0,66,0.00,,,0.00,meteohub,2013-06-08 02:30:00,
2013-06-07 21:32:00,71.6,60.1,-100.00,ESE,113,0.0,0.0,67,0.00,,,0.00,meteohub,2013-06-08 02:32:00,
2013-06-07 21:38:00,71.2,59.7,-100.00,ESE,113,0.0,0.0,67,0.00,,,0.00,meteohub,2013-06-08 02:38:00,
2013-06-07 21:41:00,71.2,59.7,-100.00,ESE,113,0.0,0.0,67,0.00,,,0.00,meteohub,2013-06-08 02:41:00,
2013-06-07 21:43:00,71.1,59.5,-100.00,ESE,113,0.0,0.0,67,0.00,,,0.00,meteohub,2013-06-08 02:43:00,
2013-06-07 21:45:00,70.9,59.4,-100.00,ESE,113,0.0,0.0,67,0.00,,,0.00,meteohub,2013-06-08 02:45:00,
2013-06-07 21:47:00,70.9,59.4,-100.00,ESE,113,0.0,0.0,67,0.00,,,0.00,meteohub,2013-06-08 02:47:00,
2013-06-07 21:49:00,70.7,59.5,-100.00,ESE,113,0.0,0.0,68,0.00,,,0.00,meteohub,2013-06-08 02:49:00,
2013-06-07 21:51:00,70.7,59.5,-100.00,ESE,113,0.0,0.0,68,0.00,,,0.00,meteohub,2013-06-08 02:51:00,
2013-06-07 21:55:00,70.5,59.4,-100.00,ESE,113,0.0,0.0,68,0.00,,,0.00,meteohub,2013-06-08 02:55:00,
2013-06-07 21:57:00,70.3,59.7,-100.00,ESE,113,0.0,0.0,69,0.00,,,0.00,meteohub,2013-06-08 02:57:00,
2013-06-07 22:00:00,70.3,59.7,-100.00,ESE,113,0.0,0.0,69,0.00,,,0.00,meteohub,2013-06-08 03:00:00,
2013-06-07 22:02:00,70.2,59.5,-100.00,ESE,113,0.0,0.0,69,0.00,,,0.00,meteohub,2013-06-08 03:02:00,
2013-06-07 22:06:00,70.0,59.4,-100.00,ESE,113,0.0,0.0,69,0.00,,,0.00,meteohub,2013-06-08 03:06:00,
2013-06-07 22:08:00,70.0,59.4,-100.00,ESE,113,0.0,0.0,69,0.00,,,0.00,meteohub,2013-06-08 03:08:00,
2013-06-07 22:12:00,69.6,59.4,-100.00,ESE,113,0.0,0.0,70,0.00,,,0.00,meteohub,2013-06-08 03:12:00,
2013-06-07 22:14:00,69.6,59.4,-100.00,ESE,113,0.0,0.0,70,0.00,,,0.00,meteohub,2013-06-08 03:14:00,
2013-06-07 22:18:00,69.6,59.4,-100.00,ESE,113,0.0,0.0,70,0.00,,,0.00,meteohub,2013-06-08 03:18:00,
2013-06-07 22:23:00,69.4,59.2,-100.00,ESE,113,0.0,0.0,70,0.00,,,0.00,meteohub,2013-06-08 03:23:00,
2013-06-07 22:25:00,69.3,59.0,-100.00,ESE,113,0.0,0.0,70,0.00,,,0.00,meteohub,2013-06-08 03:25:00,
2013-06-07 22:27:00,69.3,59.0,-100.00,ESE,113,0.0,0.0,70,0.00,,,0.00,meteohub,2013-06-08 03:27:00,
2013-06-07 22:31:00,68.9,59.2,-100.00,ESE,113,0.0,0.0,71,0.00,,,0.00,meteohub,2013-06-08 03:31:00,
2013-06-07 22:32:00,68.9,59.2,-100.00,ESE,113,0.0,0.0,71,0.00,,,0.00,meteohub,2013-06-08 03:32:00,
2013-06-07 22:33:00,68.9,59.2,-100.00,ESE,113,0.0,0.0,71,0.00,,,0.00,meteohub,2013-06-08 03:33:00,
2013-06-07 22:37:00,68.7,59.0,-100.00,ESE,113,0.0,0.0,71,0.00,,,0.00,meteohub,2013-06-08 03:37:00,
2013-06-07 22:41:00,68.7,59.4,-100.00,ESE,113,0.0,0.0,72,0.00,,,0.00,meteohub,2013-06-08 03:41:00,
2013-06-07 22:43:00,68.7,59.4,-100.00,ESE,113,0.0,0.0,72,0.00,,,0.00,meteohub,2013-06-08 03:43:00,
2013-06-07 22:45:00,68.5,59.2,-100.00,ESE,113,0.0,0.0,72,0.00,,,0.00,meteohub,2013-06-08 03:45:00,
2013-06-07 22:47:00,68.5,59.2,-100.00,ESE,113,0.0,0.0,72,0.00,,,0.00,meteohub,2013-06-08 03:47:00,
2013-06-07 22:49:00,68.4,59.0,-100.00,ESE,113,0.0,0.0,72,0.00,,,0.00,meteohub,2013-06-08 03:49:00,
2013-06-07 22:52:00,68.4,59.0,-100.00,ESE,113,0.0,0.0,72,0.00,,,0.00,meteohub,2013-06-08 03:52:00,
2013-06-07 22:54:00,68.2,58.8,-100.00,ESE,113,0.0,0.0,72,0.00,,,0.00,meteohub,2013-06-08 03:54:00,
2013-06-07 22:56:00,68.2,58.8,-100.00,ESE,113,0.0,0.0,72,0.00,,,0.00,meteohub,2013-06-08 03:56:00,
2013-06-07 23:00:00,67.8,58.8,-100.00,ESE,113,0.0,0.0,73,0.00,,,0.00,meteohub,2013-06-08 04:00:00,
2013-06-07 23:02:00,67.8,58.8,-100.00,ESE,113,0.0,0.0,73,0.00,,,0.00,meteohub,2013-06-08 04:02:00,
2013-06-07 23:04:00,67.8,58.8,-100.00,ESE,113,0.0,0.0,73,0.00,,,0.00,meteohub,2013-06-08 04:04:00,
2013-06-07 23:08:00,67.8,58.8,-100.00,ESE,113,0.0,0.0,73,0.00,,,0.00,meteohub,2013-06-08 04:08:00,
2013-06-07 23:10:00,67.6,58.6,-100.00,ESE,113,0.0,0.0,73,0.00,,,0.00,meteohub,2013-06-08 04:10:00,
2013-06-07 23:14:00,67.6,59.0,-100.00,ESE,113,0.0,0.0,74,0.00,,,0.00,meteohub,2013-06-08 04:14:00,
2013-06-07 23:16:00,67.6,59.0,-100.00,ESE,113,0.0,0.0,74,0.00,,,0.00,meteohub,2013-06-08 04:16:00,
2013-06-07 23:17:00,67.6,59.0,-100.00,ESE,113,0.0,0.0,74,0.00,,,0.00,meteohub,2013-06-08 04:17:00,
2013-06-07 23:18:00,67.6,59.0,-100.00,ESE,113,0.0,0.0,74,0.00,,,0.00,meteohub,2013-06-08 04:18:00,
2013-06-07 23:20:00,67.6,59.0,-100.00,ESE,113,0.0,0.0,74,0.00,,,0.00,meteohub,2013-06-08 04:20:00,
2013-06-07 23:22:00,67.6,59.0,-100.00,ESE,113,0.0,0.0,74,0.00,,,0.00,meteohub,2013-06-08 04:22:00,
2013-06-07 23:26:00,67.3,58.6,-100.00,ESE,113,0.0,0.0,74,0.00,,,0.00,meteohub,2013-06-08 04:26:00,
2013-06-07 23:28:00,67.3,59.0,-100.00,ESE,113,0.0,0.0,75,0.00,,,0.00,meteohub,2013-06-08 04:28:00,
2013-06-07 23:30:00,67.3,59.0,-100.00,ESE,113,0.0,0.0,75,0.00,,,0.00,meteohub,2013-06-08 04:30:00,
2013-06-07 23:32:00,67.1,58.8,-100.00,ESE,113,0.0,0.0,75,0.00,,,0.00,meteohub,2013-06-08 04:32:00,
2013-06-07 23:34:00,66.9,58.8,-100.00,ESE,113,0.0,0.0,75,0.00,,,0.00,meteohub,2013-06-08 04:34:00,
2013-06-07 23:36:00,66.9,58.8,-100.00,ESE,113,0.0,0.0,75,0.00,,,0.00,meteohub,2013-06-08 04:36:00,
2013-06-07 23:38:00,66.9,58.8,-100.00,ESE,113,0.0,0.0,75,0.00,,,0.00,meteohub,2013-06-08 04:38:00,
2013-06-07 23:40:00,66.9,58.8,-100.00,ESE,113,0.0,0.0,75,0.00,,,0.00,meteohub,2013-06-08 04:40:00,
2013-06-07 23:42:00,66.7,58.6,-100.00,ESE,113,0.0,0.0,75,0.00,,,0.00,meteohub,2013-06-08 04:42:00,
2013-06-07 23:44:00,66.7,58.6,-100.00,ESE,113,0.0,0.0,75,0.00,,,0.00,meteohub,2013-06-08 04:44:00,
2013-06-07 23:46:00,66.7,58.6,-100.00,ESE,113,0.0,0.0,75,0.00,,,0.00,meteohub,2013-06-08 04:46:00,
2013-06-07 23:48:00,66.6,58.5,-100.00,ESE,113,0.0,0.0,75,0.00,,,0.00,meteohub,2013-06-08 04:48:00,
2013-06-07 23:50:00,66.6,58.8,-100.00,ESE,113,0.0,0.0,76,0.00,,,0.00,meteohub,2013-06-08 04:50:00,
2013-06-07 23:56:00,66.4,58.6,-100.00,ESE,113,0.0,0.0,76,0.00,,,0.00,meteohub,2013-06-08 04:56:00,
2013-06-07 23:58:00,66.4,58.6,-100.00,ESE,113,0.0,0.0,76,0.00,,,0.00,meteohub,2013-06-08 04:58:00,